timestamp,surface_pressure_avg,surface_temp_avg,battery_voltage,lat,long
2020-03-13 00:09:01+00:00,321.648,0.09,12.81,47.84626,-54.09684
2020-03-13 00:19:01+00:00,326.418,0.08,12.65,47.84626,-54.09684
2020-03-13 00:29:01+00:00,326.733,0.08,12.65,47.84626,-54.09684
2020-03-13 00:39:01+00:00,335.6513,0.1,12.65,47.84626,-54.09684
2020-03-13 00:49:01+00:00,342.923,0.1,12.65,47.84626,-54.09684
2020-03-13 00:59:01+00:00,344.3763,0.1,12.65,47.84626,-54.09684
2020-03-13 01:09:01+00:00,348.5563,0.1,12.65,47.84626,-54.09684
2020-03-13 01:19:01+00:00,359.5428,0.1,12.65,47.84626,-54.09684
2020-03-13 01:29:01+00:00,364.4363,0.1,12.65,47.84626,-54.09684
2020-03-13 01:39:01+00:00,366.8829,0.1,12.65,47.84626,-54.09684
2020-03-13 01:49:01+00:00,370.848,0.06,12.65,47.84626,-54.09684
2020-03-13 01:59:01+00:00,372.7163,0.03,12.65,47.84626,-54.09684
2020-03-13 02:09:01+00:00,368.3113,0.0,12.65,47.84626,-54.09684
2020-03-13 02:19:01+00:00,365.9663,0.0,12.65,47.84626,-54.09684
2020-03-13 02:29:01+00:00,369.338,0.1,12.65,47.84626,-54.09684
2020-03-13 02:39:01+00:00,370.4329,0.12,12.65,47.84626,-54.09684
2020-03-13 02:49:01+00:00,365.7446,0.1,12.65,47.84626,-54.09684
2020-03-13 02:59:01+00:00,366.8496,0.1,12.65,47.84626,-54.09684
2020-03-13 03:09:01+00:00,357.8279,0.1,12.65,47.84626,-54.09684
2020-03-13 03:19:01+00:00,341.9547,0.1,12.65,47.84626,-54.09684
2020-03-13 03:29:01+00:00,342.6829,0.09,12.65,47.84626,-54.09684
2020-03-13 03:39:01+00:00,348.5696,0.09,12.65,47.84626,-54.09684
2020-03-13 03:49:01+00:00,340.3163,0.1,12.65,47.84626,-54.09684
2020-03-13 03:59:01+00:00,329.0630000000001,0.05,12.65,47.84626,-54.09684
2020-03-13 04:09:01+00:00,321.6896,0.12,12.65,47.84626,-54.09684
2020-03-13 04:19:01+00:00,320.5363,0.17,12.57,47.84626,-54.09684
2020-03-13 04:29:01+00:00,319.6946,0.19,12.57,47.84626,-54.09684
2020-03-13 04:39:01+00:00,315.8947,0.2,12.57,47.84626,-54.09684
2020-03-13 04:49:01+00:00,302.9913,0.13,12.57,47.84626,-54.09684
2020-03-13 04:59:01+00:00,290.6564,0.1,12.57,47.84626,-54.09684
2020-03-13 05:09:01+00:00,286.8747,0.1,12.57,47.84626,-54.09684
2020-03-13 05:19:01+00:00,279.293,0.1,12.57,47.84626,-54.09684
2020-03-13 05:29:01+00:00,261.3148,0.07,12.57,47.84626,-54.09684
2020-03-13 05:39:01+00:00,250.5264,0.0,12.57,47.84626,-54.09684
2020-03-13 05:49:01+00:00,245.8664,0.0,12.57,47.84626,-54.09684
2020-03-13 05:59:01+00:00,230.0831,0.0,12.57,47.84626,-54.09684
2020-03-13 06:09:01+00:00,213.5148,0.0,12.57,47.84626,-54.09684
2020-03-13 06:19:01+00:00,211.6048,-0.0,12.57,47.84626,-54.09684
2020-03-13 06:29:01+00:00,207.2448,0.0,12.57,47.84626,-54.09684
2020-03-13 06:39:01+00:00,185.4915,-0.0,12.57,47.84626,-54.09684
2020-03-13 06:49:01+00:00,176.0714,-0.01,12.57,47.84626,-54.09684
2020-03-13 06:59:01+00:00,182.3515,-0.01,12.57,47.84626,-54.09684
2020-03-13 07:09:01+00:00,170.6915,-0.0,12.57,47.84626,-54.09684
2020-03-13 07:19:01+00:00,153.3548,-0.1,12.49,47.84626,-54.09684
2020-03-13 07:29:01+00:00,153.8482,-0.1,12.49,47.84626,-54.09684
2020-03-13 07:39:01+00:00,159.1131,-0.11,12.49,47.84626,-54.09684
2020-03-13 07:49:01+00:00,152.9898,-0.2,12.49,47.84626,-54.09684
2020-03-13 07:59:01+00:00,150.7065,-0.25,12.49,47.84626,-54.09684
2020-03-13 08:09:01+00:00,158.3365,-0.29,12.49,47.84626,-54.09684
2020-03-13 08:19:01+00:00,158.9932,-0.3,12.49,47.84626,-54.09684
2020-03-13 08:29:01+00:00,161.5598,-0.3,12.49,47.84626,-54.09684
2020-03-13 08:39:01+00:00,169.0865,-0.27,12.49,47.84626,-54.09684
2020-03-13 08:49:01+00:00,168.4632,-0.21,12.49,47.84626,-54.09684
2020-03-13 08:59:01+00:00,166.0998,-0.2,12.49,47.84626,-54.09684
2020-03-13 09:09:01+00:00,171.0898,-0.2,12.49,47.84626,-54.09684
2020-03-13 09:19:01+00:00,177.9881,-0.17,12.49,47.84626,-54.09684
2020-03-13 09:29:01+00:00,182.6715,-0.14,12.49,47.84626,-54.09684
2020-03-13 09:39:01+00:00,187.1848,-0.2,12.49,47.84626,-54.09684
2020-03-13 09:49:01+00:00,198.9448,-0.2,12.49,47.84626,-54.09684
2020-03-13 09:59:01+00:00,204.7598,-0.2,12.49,47.84626,-54.09684
2020-03-13 10:09:01+00:00,204.6681,-0.2,12.49,47.84626,-54.09684
2020-03-13 10:19:01+00:00,212.1498,-0.2,12.49,47.84626,-54.09684
2020-03-13 10:29:01+00:00,216.1565,-0.12,12.49,47.84626,-54.09684
2020-03-13 10:39:01+00:00,216.0098,-0.1,12.49,47.84626,-54.09684
2020-03-13 10:49:01+00:00,222.4914,-0.1,12.49,47.84626,-54.09684
2020-03-13 10:59:01+00:00,228.9365,0.0,12.49,47.84626,-54.09684
2020-03-13 11:09:01+00:00,232.5348,0.04,12.49,47.84626,-54.09684
2020-03-13 11:19:01+00:00,238.3948,0.03,14.32,47.84626,-54.09684
2020-03-13 11:29:01+00:00,247.9914,0.06,14.32,47.84626,-54.09684
2020-03-13 11:39:01+00:00,251.5764,0.09,14.32,47.84626,-54.09684
2020-03-13 11:49:01+00:00,252.0331,0.1,14.32,47.84626,-54.09684
2020-03-13 11:59:01+00:00,256.3614,0.1,14.32,47.84626,-54.09684
2020-03-13 12:09:01+00:00,264.7048,0.16,14.32,47.84626,-54.09684
2020-03-13 12:19:01+00:00,274.098,0.2,14.88,47.84626,-54.09684
2020-03-13 12:29:01+00:00,284.9031,0.2,14.88,47.84626,-54.09684
2020-03-13 12:39:01+00:00,292.053,0.2,14.88,47.84626,-54.09684
2020-03-13 12:49:01+00:00,298.3713,0.2,14.88,47.84626,-54.09684
2020-03-13 12:59:01+00:00,309.3563,0.2,14.88,47.84626,-54.09684
2020-03-13 13:09:01+00:00,317.788,0.2,14.88,47.84626,-54.09684
2020-03-13 13:19:01+00:00,324.468,0.2,14.88,47.84626,-54.09684
2020-03-13 13:29:01+00:00,334.3229,0.15,14.88,47.84626,-54.09684
2020-03-13 13:39:01+00:00,342.3713,0.12,14.88,47.84626,-54.09684
2020-03-13 13:49:01+00:00,340.973,0.1,14.88,47.84626,-54.09684
2020-03-13 13:59:01+00:00,342.3546,0.1,14.88,47.84626,-54.09684
2020-03-13 14:09:01+00:00,349.3729,0.1,14.88,47.84626,-54.09684
2020-03-13 14:19:01+00:00,347.8662,0.1,14.88,47.84626,-54.09684
2020-03-13 14:29:01+00:00,342.8463,0.1,14.88,47.84626,-54.09684
2020-03-13 14:39:01+00:00,353.24300000000005,0.1,14.88,47.84626,-54.09684
2020-03-13 14:49:01+00:00,362.853,0.18,14.88,47.84626,-54.09684
2020-03-13 14:59:01+00:00,356.7497,0.2,14.88,47.84626,-54.09684
2020-03-13 15:09:01+00:00,354.5679,0.2,14.88,47.84626,-54.09684
2020-03-13 15:19:01+00:00,358.1647,0.26,14.72,47.84626,-54.09684
2020-03-13 15:29:01+00:00,354.6213,0.3,14.72,47.84626,-54.09684
2020-03-13 15:39:01+00:00,343.7996,0.29,14.72,47.84626,-54.09684
2020-03-13 15:49:01+00:00,341.4014,0.3,14.72,47.84626,-54.09684
2020-03-13 15:59:01+00:00,343.8179,0.3,14.72,47.84626,-54.09684
2020-03-13 16:09:01+00:00,333.723,0.3,14.72,47.84626,-54.09684
2020-03-13 16:19:01+00:00,330.7563,0.3,14.64,47.84626,-54.09684
2020-03-13 16:29:01+00:00,334.8096,0.3,14.64,47.84626,-54.09684
2020-03-13 16:39:01+00:00,333.713,0.31,14.64,47.84626,-54.09684
2020-03-13 16:49:01+00:00,318.5313,0.3,14.64,47.84626,-54.09684
2020-03-13 16:59:01+00:00,305.9429,0.3,14.64,47.84626,-54.09684
2020-03-13 17:09:01+00:00,304.9097,0.35,14.64,47.84626,-54.09684
2020-03-13 17:19:01+00:00,296.5664,0.37,14.56,47.84626,-54.09684
2020-03-13 17:29:01+00:00,278.1814,0.38,14.56,47.84626,-54.09684
2020-03-13 17:39:01+00:00,266.0564,0.4,14.56,47.84626,-54.09684
2020-03-13 17:49:01+00:00,259.9697,0.4,14.56,47.84626,-54.09684
2020-03-13 17:59:01+00:00,248.5031,0.4,14.56,47.84626,-54.09684
2020-03-13 18:09:01+00:00,233.9832,0.4,14.56,47.84626,-54.09684
2020-03-13 18:19:01+00:00,224.5598,0.4,14.32,47.84626,-54.09684
2020-03-13 18:29:01+00:00,216.5114,0.4,14.32,47.84626,-54.09684
2020-03-13 18:39:01+00:00,206.6031,0.4,14.32,47.84626,-54.09684
2020-03-13 18:49:01+00:00,193.9031,0.4,14.32,47.84626,-54.09684
2020-03-13 18:59:01+00:00,183.3415,0.41,14.32,47.84626,-54.09684
2020-03-13 19:09:01+00:00,176.4748,0.4,14.32,47.84626,-54.09684
2020-03-13 19:19:01+00:00,165.4115,0.4,14.24,47.84626,-54.09684
2020-03-13 19:29:01+00:00,158.6098,0.42,14.24,47.84626,-54.09684
2020-03-13 19:39:01+00:00,159.6231,0.45,14.24,47.84626,-54.09684
2020-03-13 19:49:01+00:00,155.2815,0.47,14.24,47.84626,-54.09684
2020-03-13 19:59:01+00:00,148.0315,0.48,14.24,47.84626,-54.09684
2020-03-13 20:09:01+00:00,149.1798,0.49,14.24,47.84626,-54.09684
2020-03-13 20:19:01+00:00,151.0765,0.5,14.0,47.84626,-54.09684
2020-03-13 20:29:01+00:00,150.6015,0.5,14.0,47.84626,-54.09684
2020-03-13 20:39:01+00:00,156.0198,0.5,14.0,47.84626,-54.09684
2020-03-13 20:49:01+00:00,156.4215,0.56,14.0,47.84626,-54.09684
2020-03-13 20:59:01+00:00,157.3082,0.59,14.0,47.84626,-54.09684
2020-03-13 21:09:01+00:00,161.7682,0.6,14.0,47.84626,-54.09684
2020-03-13 21:19:01+00:00,171.1082,0.6,13.68,47.84626,-54.09684
2020-03-13 21:29:01+00:00,174.6298,0.6,13.68,47.84626,-54.09684
2020-03-13 21:39:01+00:00,177.4514,0.6,13.68,47.84626,-54.09684
2020-03-13 21:49:01+00:00,186.7248,0.6,13.68,47.84626,-54.09684
2020-03-13 21:59:01+00:00,194.4181,0.6,13.68,47.84626,-54.09684
2020-03-13 22:09:01+00:00,198.8214,0.58,13.68,47.84626,-54.09684
2020-03-13 22:19:01+00:00,202.7781,0.57,13.29,47.84626,-54.09684
2020-03-13 22:29:01+00:00,211.5681,0.54,13.29,47.84626,-54.09684
2020-03-13 22:39:01+00:00,217.1848,0.54,13.29,47.84626,-54.09684
2020-03-13 22:49:01+00:00,219.6581,0.55,13.29,47.84626,-54.09684
2020-03-13 22:59:01+00:00,228.5964,0.54,13.29,47.84626,-54.09684
2020-03-13 23:09:01+00:00,235.4431,0.51,13.29,47.84626,-54.09684
2020-03-13 23:19:01+00:00,233.9331,0.5,12.89,47.84626,-54.09684
2020-03-13 23:29:01+00:00,236.5198,0.5,12.89,47.84626,-54.09684
2020-03-13 23:39:01+00:00,240.8614,0.5,12.89,47.84626,-54.09684
2020-03-13 23:49:01+00:00,244.6064,0.47,12.89,47.84626,-54.09684
2020-03-13 23:59:01+00:00,244.7664,0.42,12.89,47.84626,-54.09684
